FW6247 Weather Reports


time (UTC)temp
C
wind
direction
speed
KPH
gust
KPH
rain 1hr
cm
rain 24hr
cm
rain mn
cm
humidity
%
barometer
mb
20260506013029 23 4 0.0 8.0 0.00 0.00 0.00 51 1013.3
20260506010028 24 329 1.6 9.7 0.00 0.00 0.00 49 1013.2
20260506004530 25 328 0.0 9.7 0.00 0.00 0.00 48 1013.2
20260506003031 25 326 1.6 11.3 0.00 0.00 0.00 47 1013.1
20260506000033 25 336 1.6 12.9 0.00 0.00 0.00 46 1013.2
20260505234529 25 332 1.6 12.9 0.00 0.00 0.00 47 1013.2
20260505233033 25 335 1.6 12.9 0.00 0.00 0.00 47 1013.4
20260505230144 25 330 1.6 11.3 0.00 0.00 0.00 49 1013.5
20260505224531 25 318 3.2 12.9 0.00 0.00 0.00 49 1013.6
20260505223029 24 323 3.2 11.3 0.00 0.00 0.00 49 1013.7
20260505221610 24 319 3.2 14.5 0.00 0.00 0.00 51 1013.8
20260505220146 24 314 3.2 12.9 0.00 0.00 0.00 51 1014.0
20260505214606 24 314 3.2 14.5 0.00 0.00 0.00 51 1014.0
20260505213033 23 318 3.2 12.9 0.00 0.00 0.00 50 1014.1
20260505211530 23 315 1.6 11.3 0.00 0.00 0.00 50 1014.3
20260505210030 23 329 1.6 11.3 0.00 0.00 0.00 50 1014.5
20260505204531 23 310 3.2 14.5 0.00 0.00 0.00 50 1014.5
20260505201528 24 319 1.6 11.3 0.00 0.00 0.00 51 1014.7
20260505200031 23 314 3.2 14.5 0.00 0.00 0.00 50 1014.8
20260505194529 24 345 3.2 11.3 0.00 0.00 0.00 50 1014.8
20260505193031 -17 0 0.0 0.0 0.00 0.00 0.00 100
20260505191536 23 320 1.6 9.7 0.00 0.00 0.00 54 1015.0
20260505190105 21 313 3.2 14.5 0.00 0.00 0.00 57 1015.1
20260505184613 21 334 1.6 12.9 0.00 0.00 0.00 58 1015.1
20260505183030 21 316 3.2 12.9 0.00 0.00 0.00 57 1015.2
20260505181529 21 333 0.0 11.3 0.00 0.00 0.00 57 1015.2
20260505180032 21 336 1.6 11.3 0.00 0.00 0.00 59 1015.1
20260505174529 20 342 1.6 9.7 0.00 0.00 0.00 61 1015.2
20260505173031 19 348 1.6 8.0 0.00 0.00 0.00 66 1015.1
20260505171529 18 3 0.0 9.7 0.00 0.00 0.00 68 1015.1
20260505170034 18 7 0.0 9.7 0.00 0.00 0.00 69 1015.1
20260505164530 17 40 1.6 6.4 0.00 0.00 0.00 72 1015.1
20260505163031 17 35 1.6 6.4 0.00 0.00 0.00 74 1015.1
20260505161538 17 28 0.0 4.8 0.00 0.00 0.00 80 1015.2
20260505153105 13 7 0.0 6.4 0.00 0.00 0.00 91 1014.8
20260505151531 12 48 0.0 3.2 0.00 0.00 0.00 92 1014.7
20260505123033 8 225 0.0 0.0 0.00 0.00 0.00 91 1013.1
20260505121529 8 277 0.0 1.6 0.00 0.00 0.00 91 1013.0
20260505114646 9 292 0.0 0.0 0.00 0.00 0.00 91 1012.9
20260505113029 9 288 0.0 0.0 0.00 0.00 0.00 90 1012.8
20260505111531 9 225 0.0 0.0 0.00 0.00 0.00 90 1012.7
20260505101608 10 225 0.0 0.0 0.00 0.00 0.00 89 1012.4
20260505100038 10 225 0.0 0.0 0.00 0.00 0.00 88 1012.3
20260505093032 11 186 0.0 1.6 0.00 0.00 0.00 87 1012.2
20260505091534 11 94 0.0 3.2 0.00 0.00 0.00 86 1012.1
20260505090030 11 157 0.0 0.0 0.00 0.00 0.00 84 1012.0
20260505084532 12 157 0.0 0.0 0.00 0.00 0.00 82 1012.1
20260505083030 12 158 0.0 4.8 0.00 0.00 0.00 82 1012.1
20260505081529 12 337 0.0 6.4 0.00 0.00 0.00 82 1012.1
20260505080032 12 73 0.0 0.0 0.00 0.00 0.00 82 1012.0
20260505074531 12 243 0.0 0.0 0.00 0.00 0.00 80 1011.9
20260505073106 12 214 0.0 0.0 0.00 0.00 0.00 79 1011.9
20260505070112 13 277 0.0 4.8 0.00 0.00 0.00 76 1011.6
20260505063037 13 182 4.8 8.0 0.00 0.00 0.00 72 1011.6
20260505061533 14 189 3.2 6.4 0.00 0.00 0.00 70 1011.6
20260505060035 15 176 1.6 4.8 0.00 0.00 0.00 68 1011.6
20260505054536 15 163 1.6 6.4 0.00 0.00 0.00 66 1011.5
20260505053031 15 221 1.6 6.4 0.00 0.00 0.00 63 1011.3
20260505041531 18 232 1.6 9.7 0.00 0.00 0.00 54 1010.8
20260505040048 18 258 3.2 11.3 0.00 0.00 0.00 53 1010.6
20260505034536 18 265 3.2 9.7 0.00 0.00 0.00 53 1010.4
20260505031534 20 264 3.2 11.3 0.00 0.00 0.00 47 1010.1
20260505024534 22 264 8.0 20.9 0.00 0.00 0.00 42 1009.7
20260505023037 22 279 11.3 22.5 0.00 0.00 0.00 41 1009.6
20260505021531 23 287 11.3 24.1 0.00 0.00 0.00 39 1009.5
20260505020029 24 284 12.9 32.2 0.00 0.00 0.00 37 1009.4
20260505014532 25 281 12.9 27.4 0.00 0.00 0.00 36 1009.5